Wind_Speed
8 7 5 9 10 10 7 7 10 9 9 12 12 12 15 14 13 11 10 10 10 11 11 10 13 13 13 13 11 10 9 9 11
8 9 9 11 13 10 7 6 7 8 10 12 12 13 15 17 15 15 14 14 12 14 12 13 12 13 14 14 12 11 11 10 11
10 11 11 11 13 12 9 10 11 10 11 11 13 15 14 19 16 17 18 16 16 16 14 16 15 15 15 14 15 13 12 12 12
9 12 11 12 14 13 11 11 13 14 14 13 13 14 15 18 18 19 20 18 17 18 18 17 19 18 17 17 17 16 15 15 14
8 7 10 13 14 14 12 13 14 16 15 15 16 17 17 19 20 20 22 21 21 20 22 19 20 22 21 20 20 19 18 18 18
9 11 12 13 14 15 15 13 15 16 16 16 17 18 19 20 22 23 22 23 24 25 24 24 22 23 25 24 23 23 22 22 21
9 11 12 14 15 16 16 16 16 17 18 19 18 19 20 21 23 24 23 24 26 27 28 28 27 26 27 28 27 26 26 26 25
11 13 15 17 17 18 18 19 19 20 21 21 22 22 22 23 24 24 24 25 27 29 30 31 31 30 29 30 30 30 30 30 29
14 16 17 19 19 20 20 21 22 23 23 24 25 26 26 26 26 27 25 25 27 30 32 33 34 34 33 32 33 34 33 34 33
16 18 18 18 19 20 22 23 24 25 26 27 28 29 30 30 31 31 31 28 28 29 32 34 35 36 36 36 36 37 39 39 37
17 18 18 19 20 21 23 25 26 28 29 30 30 31 32 33 33 35 35 34 33 32 33 34 36 38 39 39 40 40 40 43 43
18 19 20 21 22 22 24 25 27 28 29 31 32 32 33 34 34 36 37 38 39 37 37 37 38 39 40 40 41 43 42 44 46
19 20 21 22 25 26 27 27 28 30 30 31 32 34 33 33 33 33 34 36 37 39 40 39 41 41 41 42 41 43 45 45 49
20 20 20 22 24 25 26 27 28 30 32 32 33 35 33 33 32 32 33 32 32 32 31 32 34 37 41 43 44 46 47 48 49
15 15 17 19 20 21 23 25 26 28 30 31 33 32 31 33 35 35 32 31 31 31 32 31 31 29 29 32 38 44 48 51 52
12 13 14 15 17 19 21 23 25 27 28 31 36 35 34 24 32 24 29 32 36 34 31 32 31 32 31 32 33 34 36 37 42
12 13 15 17 19 21 24 25 28 28 27 25 30 21 31 23 24 38 36 35 32 32 33 35 36 36 35 34 34 36 40 41 42
15 18 20 23 25 27 28 30 30 32 32 29 22 18 19 40 34 30 32 26 28 38 36 32 33 35 36 37 37 37 38 38 41
20 23 25 27 28 28 29 29 29 30 30 31 24 29 31 28 34 24 31 33 26 32 38 44 46 42 40 40 40 37 37 38 37
26 29 31 32 32 31 31 31 30 28 28 27 27 28 27 25 28 43 31 35 30 33 39 39 36 39 38 41 37 34 34 34 33
Wind_Direction
287 279 306 324 320 304 289 279 267 266 274 256 271 283 287 278 268 264 263 256 259 254 258 252 240 255 266 272 272 270 265 254 241
284 269 298 327 337 325 307 301 295 291 283 274 272 271 281 284 269 267 269 267 267 265 253 261 258 261 265 269 273 267 262 253 243
271 268 289 313 328 323 307 312 315 311 303 296 288 283 276 283 277 268 269 274 264 263 258 263 261 261 264 266 269 266 261 258 250
238 265 286 301 316 318 298 296 301 299 302 305 304 299 289 280 280 273 269 271 269 266 266 259 266 263 262 263 264 264 261 257 253
254 270 290 298 302 305 297 291 289 296 294 305 304 301 293 284 283 277 271 269 268 267 265 261 261 264 261 260 260 260 261 259 256
281 289 295 300 302 307 304 298 295 296 300 308 307 300 294 290 285 280 276 272 268 266 264 262 258 260 264 260 259 259 258 258 256
302 307 311 314 317 317 318 315 314 314 313 314 312 309 304 299 294 286 280 273 271 269 265 263 261 258 257 262 259 257 257 255 255
316 316 318 316 319 319 319 317 316 314 314 315 313 312 310 308 305 299 291 281 274 271 268 265 262 261 258 256 259 256 256 255 254
320 320 322 322 324 321 319 314 312 308 306 305 304 303 303 303 300 299 297 291 282 275 271 269 266 263 259 256 258 262 262 256 255
324 327 325 324 323 321 317 313 309 305 302 299 298 298 299 296 294 292 290 287 283 279 275 271 269 266 263 258 253 255 261 265 263
322 321 318 318 319 316 312 310 309 305 304 301 301 299 297 295 290 287 285 283 280 278 275 273 270 268 266 261 257 254 255 259 262
314 312 311 313 312 310 307 307 304 302 301 301 300 299 296 294 291 288 284 282 280 276 273 273 272 270 268 264 261 257 254 254 259
310 310 312 310 309 310 311 311 309 308 305 301 301 300 300 299 298 295 292 291 289 288 283 277 272 270 269 267 261 261 260 256 253
312 309 310 309 310 311 312 311 311 308 306 307 305 304 302 301 299 298 299 299 296 294 295 292 282 274 269 266 265 264 263 262 260
326 324 323 323 324 323 321 319 317 315 314 314 308 305 300 298 298 298 299 299 300 295 291 292 290 286 279 275 270 266 265 265 264
345 343 341 341 339 336 333 330 329 329 331 327 323 316 315 316 309 312 306 300 300 297 293 296 292 292 288 280 273 269 267 270 267
1 352 346 342 337 334 333 333 332 330 333 330 323 318 311 314 307 303 303 303 300 296 294 293 293 294 290 292 289 280 274 272 270
349 347 344 341 338 336 335 333 333 329 325 323 323 320 307 313 306 297 304 301 295 297 296 293 291 297 293 293 292 290 285 277 271
348 344 340 338 336 335 334 331 327 324 324 321 316 307 307 312 312 301 293 296 291 287 292 296 297 296 293 292 293 292 286 285 283
345 343 342 340 340 339 338 336 335 331 326 325 321 317 312 311 309 310 308 302 299 294 294 297 292 293 293 297 293 290 289 289 290
Height
1520 1519 1519 1519 1518 1518 1517 1517 1517 1517 1518 1518 1518 1517 1516 1515 1515 1515 1516 1515 1515 1515 1515 1514 1515 1514 1514 1514 1513 1512 1512 1512 1511
1520 1519 1519 1518 1518 1517 1516 1516 1516 1516 1516 1516 1516 1515 1514 1512 1513 1513 1513 1513 1513 1513 1514 1512 1512 1512 1512 1512 1511 1511 1510 1510 1509
1520 1519 1518 1518 1517 1516 1516 1516 1515 1515 1514 1513 1513 1512 1512 1510 1510 1510 1510 1510 1510 1511 1511 1510 1510 1510 1510 1510 1509 1509 1508 1508 1507
1519 1518 1518 1518 1517 1516 1516 1515 1515 1514 1512 1511 1510 1509 1508 1507 1507 1506 1506 1507 1507 1507 1508 1509 1508 1507 1507 1506 1506 1506 1505 1505 1504
1517 1517 1517 1517 1515 1514 1514 1513 1512 1511 1509 1508 1507 1506 1505 1504 1503 1502 1502 1502 1503 1503 1503 1504 1504 1504 1502 1502 1502 1502 1502 1502 1502
1516 1515 1515 1514 1513 1512 1511 1510 1509 1508 1507 1506 1504 1503 1501 1500 1499 1498 1498 1497 1497 1498 1498 1498 1499 1500 1499 1497 1497 1497 1498 1497 1497
1514 1514 1514 1513 1512 1511 1510 1508 1507 1506 1504 1503 1501 1500 1498 1496 1495 1493 1493 1492 1492 1492 1492 1492 1492 1493 1494 1493 1492 1492 1492 1492 1492
1513 1513 1513 1511 1510 1509 1508 1506 1505 1503 1502 1500 1498 1496 1495 1493 1491 1489 1488 1487 1486 1485 1485 1484 1485 1485 1486 1486 1486 1485 1485 1486 1486
1512 1511 1510 1509 1508 1506 1505 1503 1502 1499 1498 1496 1493 1491 1490 1488 1485 1483 1482 1481 1480 1479 1478 1477 1477 1477 1477 1478 1479 1479 1478 1478 1478
1509 1509 1508 1507 1505 1503 1501 1499 1496 1494 1492 1490 1488 1486 1484 1482 1479 1476 1474 1474 1473 1471 1470 1469 1469 1469 1469 1469 1470 1471 1470 1470 1470
1507 1506 1504 1503 1501 1499 1497 1494 1491 1488 1486 1484 1482 1479 1477 1475 1472 1469 1466 1464 1464 1464 1462 1461 1460 1460 1460 1459 1460 1461 1462 1461 1461
1503 1502 1500 1499 1496 1494 1492 1489 1486 1483 1480 1477 1474 1472 1469 1466 1464 1461 1458 1456 1454 1454 1454 1452 1452 1451 1450 1450 1450 1450 1451 1451 1451
1500 1498 1497 1495 1492 1490 1487 1484 1481 1477 1474 1471 1468 1464 1461 1458 1456 1453 1451 1448 1446 1444 1443 1443 1442 1440 1440 1440 1440 1439 1439 1440 1441
1497 1495 1493 1491 1488 1485 1482 1479 1475 1471 1467 1463 1459 1456 1453 1451 1449 1446 1443 1441 1439 1436 1433 1432 1431 1430 1429 1428 1428 1427 1427 1427 1427
1494 1492 1490 1488 1485 1482 1478 1474 1471 1467 1462 1457 1452 1450 1447 1443 1440 1437 1435 1433 1430 1428 1426 1424 1421 1420 1419 1417 1417 1416 1416 1415 1415
1492 1490 1488 1486 1483 1479 1475 1471 1467 1464 1458 1451 1446 1441 1438 1435 1434 1431 1428 1426 1423 1419 1417 1415 1413 1410 1408 1407 1406 1405 1404 1403 1401
1492 1489 1487 1484 1481 1477 1473 1468 1463 1460 1457 1452 1445 1435 1432 1431 1428 1425 1421 1418 1415 1412 1410 1407 1404 1401 1399 1397 1396 1394 1393 1391 1389
1490 1488 1484 1481 1477 1473 1469 1465 1460 1455 1454 1452 1448 1437 1429 1422 1422 1418 1414 1411 1408 1404 1401 1398 1396 1393 1390 1387 1385 1383 1381 1378 1376
1488 1485 1482 1478 1474 1470 1466 1462 1458 1454 1449 1446 1446 1441 1434 1424 1404 1410 1408 1405 1401 1398 1394 1388 1384 1382 1379 1377 1373 1371 1369 1367 1364
1485 1481 1477 1473 1469 1465 1461 1457 1454 1450 1446 1441 1436 1433 1428 1424 1417 1393 1397 1396 1395 1390 1385 1381 1377 1373 1368 1365 1362 1360 1357 1355 1353